Regional Weather Roundup
Issued by NWS Albany, NY

Home | Current Version | Previous Version | Text Only | Print | Product List | Glossary On
Versions: 1 2 3 4 5 6 7 8 9 10 11 12 13 14 15 16 17 18 19 20 21 22 23 24 25 26 27 28 29 30 31 32 33 34 35 36 37 38 39 40 41 42 43 44 45 46 47 48 49 50
655
ASUS41 KALY 220310
RWRALY

NEW YORK STATE HOURLY WEATHER ROUNDUP
NATIONAL WEATHER SERVICE ALBANY NY
1000 PM EST TUE NOV 21 2017

NOTE: "FAIR" INDICATES FEW OR NO CLOUDS BELOW 12,000 FEET WITH NO
SIGNIFICANT WEATHER AND/OR NO OBSTRUCTIONS TO VISIBILITY.

NYZ032-033-038>043-046>054-057>066-NYZ062>081-082-084-220400-
EAST


CITY           SKY/WX    TMP DP  RH WIND       PRES   REMARKS
ALBANY         PTCLDY    48  28  46 S12       29.95S
GLENS FALLS    CLEAR     29  25  85 SW5       29.93S WCI  24
POUGHKEEPSIE   CLEAR     36  28  73 CALM      30.01S
NEWBURGH       CLEAR     43  32  65 CALM      30.02S
MONTGOMERY     CLEAR     32  28  85 CALM      30.00R
WHITE PLAINS   CLEAR     44  37  76 S5        30.03S
ISLIP          CLOUDY    53  47  79 SW9       30.06S
NEW YORK CITY  MOCLDY    52  40  63 S9        30.04F
$$

NYZ005>009-017-018-044>046-055-056-220400-
CENTRAL


CITY           SKY/WX    TMP DP  RH WIND       PRES   REMARKS
FULTON         CLOUDY    49  28  44 S7        29.86S
SYRACUSE       MOCLDY    49  27  42 S14       29.87R
ROME           PTCLDY    49  25  39 S9        29.90S
ELMIRA         CLOUDY    47  28  47 W6        29.91R
BINGHAMTON     CLEAR     44  25  47 SW12G18   29.92S
MONTICELLO     CLEAR     41  29  62 S3        30.00R
$$

NYZ026>034-041>043-087-220400-
NORTH


CITY           SKY/WX    TMP DP  RH WIND       PRES   REMARKS
WATERTOWN      CLOUDY    48  34  58 SW9       29.84S
FORT DRUM      NOT AVBL
OGDENSBURG     MOCLDY    46  37  69 S8        29.81R
MASSENA        CLOUDY    48  35  60 S10       29.82R
SARANAC LAKE   PTCLDY    41  25  53 SW8       29.81S
PLATTSBURGH    PTCLDY    42  24  49 W3        29.86R
$$

NYZ001>004-010>016-019>021-085-220400-
WEST


CITY           SKY/WX    TMP DP  RH WIND       PRES   REMARKS
NIAGARA FALLS  LGT RAIN  44  37  76 NW17      29.85R
BUFFALO        LGT RAIN  46  39  76 W14       29.85R
DUNKIRK        LGT RAIN  45  40  82 W14G22    29.88R
JAMESTOWN      CLOUDY    44  30  57 SW10      29.87S
WELLSVILLE     CLOUDY    49  26  41 SW9       29.88S
ROCHESTER      CLOUDY    48  34  58 SW6       29.85F
PENN YAN       CLOUDY    38  30  73 CALM      29.88S
$$

             KEY
       WCI = WIND CHILL INDEX
       VSB = VISIBILITY
       HX  = HEAT INDEX
$$




USA.gov is the U.S. government's official web portal to all federal, state and local government web resources and services.